Showing default

OV1-4, 2121

Orbit data source: Space-Track

OV1-4, 2121 is a payload satellite owned by USAF OAR (US) in LEO that was launched on Wed, 30 Mar 1966 UTC via an ATLAS D launch vehicle from the Air Force Western Test Range (AFWTR). Payload-class satellites include a variety of spacecraft equipped with specific instruments for various scientific and technological missions. These include communications satellites like Starlink; space stations such as the ISS; scientific satellites like the Hubble; Earth observation satellites from companies like Planet Labs, Umbra, and HawkEye 360; GPS; miniature CubeSats for education and research; and military/defense satellites.

Loading next visibility...
Identifier
2121, 1966-025A
Orbit
LEO
Country
Flag of USUS
Related business
Manufacturer
GD/Convair
Mission
Spacecraft
Bus & Motor
OV1, Unknown motor
Mass
87 kg wet, 87 kg dry
Launch date (UTC)
1966-03-30 (60 years ago)
Launch vehicle
ATLAS D
Launch site
Air Force Western Test Range (AFWTR)
Object type
Payload
Rocket body
Debris
Shape & HBR
Unknown
Radar Cross Section
Medium (>0.1 m² and <1 m²)

Expand to show TLE details & history
Last TLE update: 20 hours ago

TLE from 20 hours ago
0 OV1-4
1 02121U 66025A   25302.53231887  .00000350  00000-0  67838-4 0  9998
2 02121 144.5060 284.2508 0082971 159.5357 200.8663 13.87286124 19095
Epoch: 2025-10-29T12:46Z
TLE epoch observation values (Epoch: 2025-10-29T12:46:32.350Z)
Latitude
-0°
Longitude
54.51191°
Altitude
993.952 km
Speed
7.328 km/s
True Right ascension
18h 57m 00s
True Declination
0° 00' 00"
Sunlit
Object was in daylight at epoch
Visualization orbit readout
Latitude
Unknown
Longitude
Unknown
Altitude
Unknown
Speed
Unknown
Apparent Right ascension
Unknown
Apparent Declination
Unknown
Sunlit
N/A
Visualization observer readout
Local Sidereal Time
04:42:01
Azimuth
Unknown
Elevation
Unknown
Doppler factor
Unknown
Orbital elements
Apogee altitude
1,001.867 km
Perigee altitude
880.41 km
Semi-major axis
7,319.275 km
Eccentricity
0.0083
Inclination
144.506°
RAAN
284.2508°
Arg. of periapsis
159.5357°
True anomaly
200.5309°
Mean anomaly
200.8663°
Eccentric anomaly
200.69828°
Mean motion
3.4661 °/min
Orbital period
103.86 mins
BSTAR
0.000067838
Loading maneuver chart data...
Computing Atmospheric mass density...
Loading historical data...
Loading historical data...
Loading historical data...
Loading historical data...
Loading historical data...
Loading historical data...
Loading historical data...

Documentation

Showing up to 5 results
|